Marshfield, MA

6:19 PM EDT on August 17, 2017 (GMT -0400)
Marshfield

Weather History for KGHG - January, 2014

Change the Weather History Date:

Sunday, January 12, 2014

  Actual Average (KPYM) Record (KPYM)
Temperature  
Mean Temperature 45 °F -  
Max Temperature 53 °F 34 °F 60 °F (1975)
Min Temperature 35 °F 14 °F -15 °F (1981)
Degree Days  
Heating Degree Days 20    
Moisture  
Dew Point 34 °F    
Average Humidity 68    
Maximum Humidity 100    
Minimum Humidity 50    
Precipitation  
Precipitation 0.12 in - - ()
Sea Level Pressure  
Sea Level Pressure 29.63 in    
Wind  
Wind Speed 10 mph (WSW)    
Max Wind Speed 18 mph    
Max Gust Speed 33 mph    
Visibility 10 miles    
Events Rain    
Averages and records for this station are not official NWS values.
T = Trace of Precipitation, MM = Missing Value Source: NWS Daily Summary

Daily Weather History Graph

Daily Weather History Graph

Search for Another Location

Airport or City:

Trip Planner

Search our weather history database for the weather conditions in past years. The results will help you decide how hot, cold, wet, or windy it might be!

Date:

Astronomy

Jan. 12, 2014 Rise Set
Actual Time 7:09 AM EST 4:32 PM EST
Civil Twilight 6:38 AM EST 5:03 PM EST
Nautical Twilight 6:03 AM EST 5:38 PM EST
Astronomical Twilight 5:30 AM EST 6:12 PM EST
Moon 1:58 PM EST (1/12) 4:05 AM EST (1/12)
Length of Visible Light 10h 25m
Length of Day
9h 23m
Waxing Gibbous, 89% of the Moon is Illuminated
Jan 12
Waxing Gibbous
Jan 15
Full
Jan 24
Last Quarter
Jan 30
New
Feb 6
First Quarter

Hourly Weather History & Observations

Time (EST) Temp. Windchill Dew Point Humidity Pressure Visibility Wind Dir Wind Speed Gust Speed Precip Events Conditions
12:15 AM 53.6 °F - 53.6 °F 100% 29.32 in 10.0 mi South 9.2 mph - N/A   Clear
12:35 AM 53.6 °F - 51.8 °F 94% 29.33 in 10.0 mi SSW 10.4 mph 20.7 mph N/A   Clear
12:55 AM 53.6 °F - 51.8 °F 94% 29.34 in 10.0 mi SSW 10.4 mph 17.3 mph N/A   Partly Cloudy
1:15 AM 53.6 °F - 51.8 °F 94% 29.35 in 10.0 mi SSW 8.1 mph - N/A Rain Light Rain
1:35 AM 53.6 °F - 51.8 °F 94% 29.37 in 3.0 mi SW 6.9 mph - 0.01 in Rain Rain
1:55 AM 53.6 °F - 51.8 °F 94% 29.37 in 2.5 mi South 9.2 mph - 0.09 in Rain Light Rain
2:15 AM 51.8 °F - 51.8 °F 100% 29.37 in 6.0 mi SSW 10.4 mph 16.1 mph 0.01 in Rain Light Rain
2:35 AM 51.8 °F - 51.8 °F 100% 29.37 in 10.0 mi SSW 9.2 mph - 0.02 in   Mostly Cloudy
2:55 AM 51.8 °F - 50.0 °F 94% 29.37 in 10.0 mi SSW 9.2 mph 17.3 mph 0.02 in   Mostly Cloudy
3:15 AM 51.8 °F - 50.0 °F 94% 29.36 in 10.0 mi SSW 9.2 mph - N/A   Scattered Clouds
3:35 AM 51.8 °F - 51.8 °F 100% 29.36 in 10.0 mi SSW 8.1 mph - N/A   Mostly Cloudy
3:55 AM 51.8 °F - 48.2 °F 88% 29.38 in 8.0 mi West 6.9 mph 16.1 mph N/A Rain Heavy Rain
4:15 AM 46.4 °F 41.5 °F 44.6 °F 93% 29.39 in 7.0 mi West 10.4 mph - 0.01 in   Overcast
4:35 AM 46.4 °F 42.9 °F 42.8 °F 87% 29.39 in 10.0 mi West 6.9 mph - 0.01 in   Mostly Cloudy
4:55 AM 44.6 °F 42.2 °F 42.8 °F 93% 29.40 in 10.0 mi WSW 4.6 mph - 0.01 in   Mostly Cloudy
5:15 AM 44.6 °F 43.1 °F 42.8 °F 93% 29.41 in 10.0 mi SW 3.5 mph - N/A   Overcast
5:35 AM 44.6 °F 41.4 °F 42.8 °F 93% 29.41 in 10.0 mi West 5.8 mph - N/A   Overcast
5:55 AM 44.6 °F 39.2 °F 42.8 °F 93% 29.41 in 10.0 mi West 10.4 mph 17.3 mph N/A   Mostly Cloudy
6:15 AM 44.6 °F 40.2 °F 39.2 °F 81% 29.42 in 10.0 mi West 8.1 mph 19.6 mph N/A   Clear
6:35 AM 44.6 °F 39.2 °F 37.4 °F 76% 29.43 in 10.0 mi West 10.4 mph - N/A   Clear
6:55 AM 42.8 °F 37.5 °F 37.4 °F 81% 29.43 in 10.0 mi West 9.2 mph - N/A   Clear
7:15 AM 42.8 °F 37.0 °F 35.6 °F 76% 29.45 in 10.0 mi West 10.4 mph 18.4 mph N/A   Clear
7:35 AM 42.8 °F 36.2 °F 33.8 °F 70% 29.47 in 10.0 mi West 12.7 mph 23.0 mph N/A   Clear
7:55 AM 42.8 °F 36.6 °F 32.0 °F 66% 29.49 in 10.0 mi West 11.5 mph 23.0 mph N/A   Clear
8:15 AM 44.6 °F 40.2 °F 32.0 °F 61% 29.50 in 10.0 mi West 8.1 mph 18.4 mph N/A   Clear
8:35 AM 42.8 °F 37.0 °F 32.0 °F 66% 29.53 in 10.0 mi WSW 10.4 mph 16.1 mph N/A   Clear
8:55 AM 42.8 °F 36.6 °F 32.0 °F 66% 29.53 in 10.0 mi West 11.5 mph 17.3 mph N/A   Clear
9:15 AM 44.6 °F 38.8 °F 32.0 °F 61% 29.54 in 10.0 mi West 11.5 mph 21.9 mph N/A   Clear
9:35 AM 44.6 °F 37.8 °F 32.0 °F 61% 29.55 in 10.0 mi West 15.0 mph 24.2 mph N/A   Clear
9:55 AM 44.6 °F 39.2 °F 32.0 °F 61% 29.56 in 10.0 mi West 10.4 mph 27.6 mph N/A   Clear
10:15 AM 46.4 °F 39.8 °F 32.0 °F 57% 29.56 in 10.0 mi West 16.1 mph 25.3 mph N/A   Clear
10:35 AM 46.4 °F 41.1 °F 32.0 °F 57% 29.57 in 10.0 mi West 11.5 mph 25.3 mph N/A   Clear
10:55 AM 46.4 °F 41.9 °F 30.2 °F 53% 29.58 in 10.0 mi West 9.2 mph 27.6 mph N/A   Clear
11:15 AM 46.4 °F 40.4 °F 30.2 °F 53% 29.58 in 10.0 mi West 13.8 mph 29.9 mph N/A   Clear
11:35 AM 46.4 °F 39.8 °F 30.2 °F 53% 29.58 in 10.0 mi West 16.1 mph 33.4 mph N/A   Clear
11:55 AM 46.4 °F 40.1 °F 30.2 °F 53% 29.58 in 10.0 mi West 15.0 mph 29.9 mph N/A   Clear
12:15 PM 46.4 °F 40.1 °F 30.2 °F 53% 29.58 in 10.0 mi West 15.0 mph 23.0 mph N/A   Clear
12:35 PM 46.4 °F 40.7 °F 30.2 °F 53% 29.58 in 10.0 mi West 12.7 mph 26.5 mph N/A   Clear
12:55 PM 48.2 °F - 30.2 °F 50% 29.59 in 10.0 mi West 18.4 mph 26.5 mph N/A   Partly Cloudy
1:15 PM 46.4 °F 40.4 °F 28.4 °F 50% 29.61 in 10.0 mi West 13.8 mph 26.5 mph N/A   Mostly Cloudy
1:35 PM 46.4 °F 39.5 °F 30.2 °F 53% 29.62 in 10.0 mi West 17.3 mph 24.2 mph N/A   Overcast
1:55 PM 46.4 °F 40.1 °F 28.4 °F 50% 29.63 in 10.0 mi West 15.0 mph 25.3 mph N/A   Overcast
2:15 PM 46.4 °F 41.5 °F 30.2 °F 53% 29.65 in 10.0 mi West 10.4 mph 21.9 mph N/A   Overcast
2:35 PM 44.6 °F 38.8 °F 28.4 °F 53% 29.67 in 10.0 mi West 11.5 mph 20.7 mph N/A   Mostly Cloudy
2:55 PM 46.4 °F 40.7 °F 28.4 °F 50% 29.68 in 10.0 mi West 12.7 mph 20.7 mph N/A   Mostly Cloudy
3:15 PM 44.6 °F 39.2 °F 28.4 °F 53% 29.69 in 10.0 mi West 10.4 mph 26.5 mph N/A   Scattered Clouds
3:35 PM 44.6 °F 40.2 °F 28.4 °F 53% 29.71 in 10.0 mi West 8.1 mph 20.7 mph N/A   Scattered Clouds
3:55 PM 44.6 °F 39.7 °F 28.4 °F 53% 29.72 in 10.0 mi WSW 9.2 mph 18.4 mph N/A   Scattered Clouds
4:15 PM 44.6 °F 38.8 °F 28.4 °F 53% 29.74 in 10.0 mi West 11.5 mph 18.4 mph N/A   Mostly Cloudy
4:35 PM 44.6 °F 38.8 °F 28.4 °F 53% 29.76 in 10.0 mi West 11.5 mph 20.7 mph N/A   Overcast
4:55 PM 42.8 °F 37.0 °F 28.4 °F 57% 29.78 in 10.0 mi West 10.4 mph 20.7 mph N/A   Mostly Cloudy
5:15 PM 42.8 °F 37.0 °F 28.4 °F 57% 29.80 in 10.0 mi West 10.4 mph 19.6 mph N/A   Partly Cloudy
5:35 PM 42.8 °F 37.0 °F 28.4 °F 57% 29.82 in 10.0 mi West 10.4 mph 17.3 mph N/A   Clear
5:55 PM 42.8 °F 36.2 °F 26.6 °F 53% 29.83 in 10.0 mi West 12.7 mph 20.7 mph N/A   Partly Cloudy
6:15 PM 42.8 °F 38.6 °F 26.6 °F 53% 29.85 in 10.0 mi West 6.9 mph - N/A   Mostly Cloudy
6:35 PM 42.8 °F 39.3 °F 26.6 °F 53% 29.86 in 10.0 mi West 5.8 mph 18.4 mph N/A   Overcast
6:55 PM 41.0 °F 32.8 °F 26.6 °F 57% 29.86 in 10.0 mi West 16.1 mph 21.9 mph N/A   Mostly Cloudy
7:15 PM 41.0 °F 36.4 °F 26.6 °F 57% 29.88 in 10.0 mi West 6.9 mph 18.4 mph N/A   Scattered Clouds
7:35 PM 39.2 °F 32.0 °F 26.6 °F 61% 29.89 in 10.0 mi West 11.5 mph 17.3 mph N/A   Partly Cloudy
7:55 PM 39.2 °F 33.6 °F 26.6 °F 61% 29.91 in 10.0 mi West 8.1 mph 16.1 mph N/A   Partly Cloudy
8:15 PM 39.2 °F 32.0 °F 26.6 °F 61% 29.92 in 10.0 mi West 11.5 mph 20.7 mph N/A   Partly Cloudy
8:35 PM 39.2 °F 33.6 °F 26.6 °F 61% 29.91 in 10.0 mi West 8.1 mph 17.3 mph N/A   Clear
8:55 PM 39.2 °F 34.2 °F 26.6 °F 61% 29.93 in 10.0 mi WSW 6.9 mph - N/A   Clear
9:15 PM 37.4 °F 32.1 °F 26.6 °F 65% 29.94 in 10.0 mi WSW 6.9 mph - N/A   Clear
9:35 PM 37.4 °F 34.9 °F 26.6 °F 65% 29.95 in 10.0 mi WSW 3.5 mph - N/A   Clear
9:55 PM 37.4 °F 34.9 °F 26.6 °F 65% 29.96 in 10.0 mi SW 3.5 mph - N/A   Clear
10:15 PM 37.4 °F 33.8 °F 26.6 °F 65% 29.96 in 10.0 mi WSW 4.6 mph - N/A   Clear
10:35 PM 37.4 °F 30.8 °F 26.6 °F 65% 29.96 in 10.0 mi West 9.2 mph 20.7 mph N/A   Clear
10:55 PM 37.4 °F 32.1 °F 26.6 °F 65% 29.97 in 10.0 mi WSW 6.9 mph - N/A   Clear
11:15 PM 37.4 °F 31.4 °F 26.6 °F 65% 29.96 in 10.0 mi West 8.1 mph - N/A   Clear
11:35 PM 37.4 °F 32.1 °F 26.6 °F 65% 29.97 in 10.0 mi West 6.9 mph - N/A   Clear
11:55 PM 35.6 °F 29.2 °F 26.6 °F 70% 29.97 in 10.0 mi WSW 8.1 mph - N/A   Clear